Regional Weather Roundup
Issued by NWS

Home | Current Version | Previous Version | Graphics & Text | Print | Product List | Glossary On
Versions: 1 2 3 4 5 6 7 8 9 10 11 12 13 14 15 16 17 18 19 20 21 22 23 24 25 26 27 28 29 30 31 32 33 34 35 36 37 38 39 40 41 42 43 44 45 46 47 48 49 50
000
ASUS43 KLSX 172307
RWRMO

WEATHER SUMMARY FOR MISSOURI
NATIONAL WEATHER SERVICE SPRINGFIELD MO
500 PM CST WED JAN 17 2018

NOTE: "FAIR" INDICATES FEW OR NO CLOUDS BELOW 12,000 FEET WITH NO
       SIGNIFICANT WEATHER AND/OR OBSTRUCTIONS TO VISIBILITY.
       CURRENT SKY AND/OR WEATHER CONDITIONS ARE NOT AVAILABLE FOR
       CHILLICOTHE AND FARMINGTON.

MOZ001>031-035>038-043-044-053-054-180000-
...NORTHERN AND WESTERN MISSOURI...

CITY           SKY/WX    TMP DP  RH WIND       PRES   REMARKS
KANSAS CTY INT CLEAR     22  10  60 SW10      30.49F WCI  11
KANSAS C DTWN  CLEAR     25   9  50 SW10      30.52F WCI  15
LEE`S SUMMIT   CLEAR     22   9  57 SW14      30.51F WCI   9
ST JOSEPH      CLEAR     23  12  62 S9        30.49F WCI  13
CHILLICOTHE      N/A     24  10  55 S8        30.52S WCI  15
KIRKSVILLE     CLEAR     21  12  68 SW9       30.48F WCI  11

$$
MOZ066>068-077>081-088>096-101>105-180000-
...SOUTHWEST MISSOURI...

CITY           SKY/WX    TMP DP  RH WIND       PRES   REMARKS
SPRINGFIELD    CLOUDY    19   9  65 S6        30.55F WCI  11
JOPLIN         CLOUDY    20   9  62 S9        30.57F WCI   9
BRANSON        CLEAR     25   9  50 CALM      30.57F

$$
MOZ032>034-039>042-045>050-055>058-069>072-180000-
...CENTRAL MISSOURI...

CITY           SKY/WX    TMP DP  RH WIND       PRES   REMARKS
COLUMBIA       CLEAR     20  10  65 S8        30.54F WCI  10
JEFFERSON CITY CLEAR     23   9  55 SW6       30.57F WCI  16
ROLLA          CLEAR     20   8  60 SW9       30.55F WCI   9
SEDALIA        CLEAR     22  12  65 SW9       30.55F WCI  12
WHITEMAN AFB   CLEAR     20   9  63 SW12      30.50F WCI   8
WARRENSBURG    CLEAR     21  10  63 S12       30.55F WCI   9
OSAGE BEACH    CLEAR     23  10  57 SW8       30.57F WCI  14

$$
MOZ051-052-059>065-180000-
...EAST CENTRAL MISSOURI...

CITY           SKY/WX    TMP DP  RH WIND       PRES   REMARKS
ST LOUIS INTL  PTCLDY    23  10  57 W7        30.57F WCI  15
SPIRIT OF STL  CLEAR     24  10  55 SW6       30.56F WCI  17
ST CHARLES     CLEAR     23   9  55 SW9       30.57F WCI  13

$$
MOZ072>076-082>087-097>100-106>115-180000-
...SOUTH CENTRAL AND SOUTHEAST MISSOURI...

CITY           SKY/WX    TMP DP  RH WIND       PRES   REMARKS
CAPE GIRARDEAU FAIR      16   8  71 S7        30.64S WCI   6
FARMINGTON     CLEAR     27   9  46 W3        30.56F
POPLAR BLUFF   FAIR      17  10  74 SE5       30.64F WCI  10
WEST PLAINS    CLEAR     24   7  48 W6        30.57F WCI  17

$$



USA.gov is the U.S. government's official web portal to all federal, state and local government web resources and services.